Printer-friendly version

IAU Minor Planet Center

Minor Planet Center

MPEC 2008-C44 : 2008 CD6

The following Minor Planet Electronic Circular may be linked-to from your own Web pages, but must not otherwise be redistributed electronically.


Read MPEC 2008-C43 Read MPEC 2008-C45


M.P.E.C. 2008-C44                                Issued 2008 Feb. 8, 17:03 UT

     The Minor Planet Electronic Circulars contain information on unusual
         minor planets and routine data on comets.  They are published
   on behalf of Commission 20 of the International Astronomical Union by the
          Minor Planet Center, Smithsonian Astrophysical Observatory,
                          Cambridge, MA 02138, U.S.A.

             Prepared using the Tamkin Foundation Computer Network

                              MPC@CFA.HARVARD.EDU
          URL http://www.cfa.harvard.edu/iau/mpc.html  ISSN 1523-6714

                                   2008 CD6

Observations:
     K08C06D  C2008 02 07.31686 09 27 46.29 +10 55 28.4          20.8 V EC044G96
     K08C06D  C2008 02 07.32343 09 27 45.57 +10 55 35.1          21.3 V EC044G96
     K08C06D  C2008 02 07.33007 09 27 44.92 +10 55 42.7          21.0 V EC044G96
     K08C06D  C2008 02 07.33667 09 27 44.24 +10 55 50.3          21.0 V EC044G96
     K08C06D* C2008 02 07.38307 09 27 39.56 +10 56 42.4          21.0 V EC044G96
     K08C06D  C2008 02 07.39073 09 27 38.88 +10 56 50.5          21.1 V EC044G96
     K08C06D  C2008 02 07.39846 09 27 38.08 +10 56 58.9          21.2 V EC044G96
     K08C06D  C2008 02 07.40619 09 27 37.33 +10 57 07.8          21.2 V EC044G96
     K08C06D  C2008 02 08.19522 09 26 34.61 +11 11 20.6          21.8 V EC044291
     K08C06D  C2008 02 08.20057 09 26 34.14 +11 11 26.2          21.7 V EC044291
     K08C06D HC2008 02 08.20596 09 26 33.57 +11 11 30.5                 EC044291
     K08C06D  C2008 02 08.31624 09 26 23.35 +11 13 28.3          20.8 V EC044G96
     K08C06D  C2008 02 08.32093 09 26 22.88 +11 13 33.4          21.0 V EC044G96
     K08C06D  C2008 02 08.32572 09 26 22.45 +11 13 38.2          21.1 V EC044G96
     K08C06D  C2008 02 08.33036 09 26 22.02 +11 13 42.7          21.2 V EC044G96

Observer details:
291 LPL/Spacewatch II.  Observer J. V. Scotti.  1.8-m f/2.7 reflector + CCD.
G96 Mt. Lemmon Survey.  Observer S. M. Larson.  Measurers E. C. Beshore,
    A. Boattini, G. J. Garradd, A. R. Gibbs, A. D. Grauer, R. E. Hill,
    R. A. Kowalski, S. M. Larson, R. H. McNaught.  1.5-m reflector + CCD.

Orbital elements:
2008 CD6                                                 Earth MOID = 0.0041 AU
Epoch 2007 Oct. 27.0 TT = JDT 2454400.5                 MPC
M 347.71577              (2000.0)            P               Q
n   0.30612839     Peri.  230.64655     +0.58164689     -0.81344062
a   2.1803873      Node   183.78751     +0.75143688     +0.53783772
e   0.6412126      Incl.    0.97167     +0.31149561     +0.22146092
P   3.22           H   23.6           G   0.15           U   9
Residuals in seconds of arc
080207 G96  0.5+  0.0     080207 G96  0.5+  0.0     080208 291  0.7-  1.2-
080207 G96  0.3-  0.6-    080207 G96  0.0   0.0     080208 G96  0.2+  0.1+
080207 G96  0.0   0.5-    080207 G96  0.1+  0.4+    080208 G96  0.2-  0.4+
080207 G96  0.2-  0.3-    080208 291  0.2+  0.4+    080208 G96  0.0   0.2+
080207 G96  0.7-  0.4+    080208 291  0.4+  0.3+    080208 G96  0.1+  0.1-

Ephemeris:
2008 CD6                 a,e,i = 2.18, 0.64, 1                   q = 0.7823
Date    TT    R. A. (2000) Decl.     Delta      r     Elong.  Phase     V
2008 02 04    09 33.25   +09 44.7    0.186    1.170   170.8     7.7    20.8
2008 02 05    09 31.44   +10 08.2    0.195    1.180   172.2     6.5    20.9
2008 02 06    09 29.77   +10 29.8    0.204    1.189   173.6     5.3    21.0
2008 02 07    09 28.23   +10 49.7    0.214    1.199   174.8     4.3    21.0
2008 02 08    09 26.81   +11 08.1    0.223    1.209   175.8     3.4    21.1
2008 02 09    09 25.51   +11 25.2    0.232    1.218   176.4     2.9    21.2
2008 02 10    09 24.30   +11 41.1    0.242    1.228   176.5     2.8    21.3
2008 02 11    09 23.19   +11 55.8    0.251    1.238   176.1     3.1    21.4
2008 02 12    09 22.17   +12 09.5    0.261    1.247   175.4     3.6    21.5
2008 02 13    09 21.23   +12 22.2    0.271    1.257   174.4     4.4    21.6
2008 02 14    09 20.37   +12 34.1    0.281    1.267   173.4     5.2    21.8
2008 02 15    09 19.58   +12 45.2    0.291    1.277   172.3     6.0    21.9
2008 02 16    09 18.87   +12 55.5    0.301    1.286   171.1     6.8    22.1
2008 02 17    09 18.22   +13 05.1    0.312    1.296   170.0     7.6    22.2
2008 02 18    09 17.63   +13 14.0    0.322    1.306   168.9     8.4    22.3
2008 02 19    09 17.11   +13 22.4    0.333    1.316   167.7     9.2    22.4

Timothy B. Spahr             (C) Copyright 2008 MPC           M.P.E.C. 2008-C44

Read MPEC 2008-C43 Read MPEC 2008-C45


Our Web policy. Index to the CBAT/MPC/ICQ pages.


Valid HTML 4.01!